Change the Weather History Date:

Wednesday, October 13, 2010

  Actual Average Record
Temperature  
Mean Temperature 52 °F 51 °F  
Max Temperature 55 °F 61 °F 81 °F (2008)
Min Temperature 48 °F 41 °F 32 °F (2006)
Degree Days  
Heating Degree Days 14    
Month to date heating degree days  
Since 1 July heating degree days  
Cooling Degree Days 0    
Month to date cooling degree days  
Year to date cooling degree days  
Growing Degree Days 2 (Base 50)    
Moisture  
Dew Point 50 °F    
Average Humidity 92    
Maximum Humidity 100    
Minimum Humidity 77    
Precipitation  
Precipitation 0.39 in 0.09 in 0.57 in (1999)
Month to date precipitation 1.20  
Year to date precipitation 25.55  
Snow  
Snow 0.00 in - - ()
Month to date snowfall  
Since 1 July snowfall  
Since 1 September snowfall  
Snow Depth -    
Sea Level Pressure  
Sea Level Pressure 30.02 in    
Wind  
Wind Speed 5 mph (WSW)    
Max Wind Speed 10 mph    
Max Gust Speed -    
Visibility 5 miles    
Events Fog , Rain    
T = Trace of Precipitation, MM = Missing Value Source: NWS Daily Summary

Daily Weather History Graph

Daily Weather History Graph

Search for Another Location

Airport or City:

Trip Planner

Search our weather history database for the weather conditions in past years. The results will help you decide how hot, cold, wet, or windy it might be!

Date:

Astronomy

Oct. 13, 2010 Rise Set
Actual Time 7:47 AM EDT 6:56 PM EDT
Civil Twilight 7:19 AM EDT 7:25 PM EDT
Nautical Twilight 6:45 AM EDT 7:58 PM EDT
Astronomical Twilight 6:12 AM EDT 8:31 PM EDT
Moon 2:16 PM EDT (10/13) 11:26 PM EDT (10/13)
Length of Visible Light 12h 06m
Length of Day
11h 08m
Waxing Crescent, 38% of the Moon is Illuminated
Oct 13
Waxing Crescent
Oct 14
First Quarter
Oct 22
Full
Oct 30
Last Quarter
Nov 6
New

Hourly Weather History & Observations

Time (EDT) Temp. Dew Point Humidity Pressure Visibility Wind Dir Wind Speed Gust Speed Precip Events Conditions
12:53 AM 48.0 °F 44.1 °F 86% 30.00 in 10.0 mi SSE 4.6 mph - N/A   Clear
1:53 AM 48.9 °F 45.0 °F 86% 29.99 in 10.0 mi South 6.9 mph - N/A   Clear
2:53 AM 48.9 °F 45.0 °F 86% 29.99 in 10.0 mi South 8.1 mph - N/A   Clear
3:53 AM 50.0 °F 45.0 °F 83% 29.99 in 10.0 mi SSW 5.8 mph - N/A   Overcast
4:53 AM 50.0 °F 45.0 °F 83% 29.98 in 10.0 mi SSW 6.9 mph - N/A   Clear
5:53 AM 50.0 °F 45.0 °F 83% 29.99 in 10.0 mi SSW 5.8 mph - N/A   Overcast
6:53 AM 51.1 °F 45.0 °F 80% 30.00 in 10.0 mi SSW 4.6 mph - N/A   Overcast
7:53 AM 51.1 °F 45.0 °F 80% 30.00 in 10.0 mi SSW 5.8 mph - N/A   Mostly Cloudy
8:53 AM 52.0 °F 46.0 °F 80% 30.02 in 10.0 mi WSW 3.5 mph - N/A   Overcast
9:53 AM 53.1 °F 46.0 °F 77% 30.02 in 10.0 mi SSW 8.1 mph - 0.00 in   Scattered Clouds
10:38 AM 51.8 °F 46.4 °F 82% 30.03 in 1.5 mi WSW 9.2 mph - 0.00 in Rain Heavy Rain
10:48 AM 51.8 °F 48.2 °F 88% 30.03 in 2.0 mi WSW 5.8 mph - 0.01 in Rain Light Rain
10:53 AM 51.1 °F 48.0 °F 89% 30.03 in 5.0 mi SW 6.9 mph - 0.02 in Rain Rain
11:12 AM 51.8 °F 48.2 °F 88% 30.02 in 3.0 mi SW 5.8 mph - 0.02 in Rain Rain
11:27 AM 51.8 °F 48.2 °F 88% 30.01 in 2.5 mi SSW 3.5 mph - 0.03 in Rain Rain
11:53 AM 52.0 °F 50.0 °F 93% 30.03 in 3.0 mi WNW 5.8 mph - 0.05 in Rain Light Rain
12:27 PM 51.8 °F 50.0 °F 94% 30.03 in 2.5 mi WSW 4.6 mph - 0.02 in Rain Light Rain
12:35 PM 51.8 °F 50.0 °F 94% 30.02 in 2.5 mi SW 4.6 mph - 0.02 in Rain Rain
12:53 PM 51.1 °F 50.0 °F 96% 30.03 in 3.0 mi Calm Calm - 0.03 in Rain Light Rain
1:01 PM 51.8 °F 50.0 °F 94% 30.02 in 4.0 mi SW 3.5 mph - 0.01 in Rain Light Rain
1:06 PM 51.8 °F 50.0 °F 94% 30.02 in 4.0 mi SW 4.6 mph - 0.01 in Rain Light Rain
1:17 PM 51.8 °F 50.0 °F 94% 30.02 in 2.0 mi WSW 3.5 mph - 0.02 in Rain Light Rain
1:34 PM 51.8 °F 50.0 °F 94% 30.02 in 2.0 mi SW 6.9 mph - 0.03 in Rain Light Rain
1:53 PM 52.0 °F 51.1 °F 97% 30.03 in 1.5 mi WSW 5.8 mph - 0.04 in Rain Light Rain
2:14 PM 51.8 °F 51.8 °F 100% 30.02 in 0.8 mi WSW 5.8 mph - 0.01 in Rain Light Rain
2:29 PM 51.8 °F 51.8 °F 100% 30.02 in 1.5 mi West 4.6 mph - 0.02 in Rain Light Rain
2:45 PM 53.6 °F 51.8 °F 94% 30.01 in 1.8 mi West 3.5 mph - 0.02 in   Overcast
2:53 PM 53.1 °F 52.0 °F 96% 30.02 in 1.8 mi West 3.5 mph - 0.03 in   Overcast
3:02 PM 53.6 °F 51.8 °F 94% 30.01 in 1.8 mi WSW 3.5 mph - N/A   Overcast
3:38 PM 53.6 °F 53.6 °F 100% 30.01 in 1.8 mi Calm Calm - 0.01 in   Overcast
3:45 PM 53.6 °F 53.6 °F 100% 30.01 in 2.5 mi Calm Calm - 0.02 in   Overcast
3:53 PM 54.0 °F 53.1 °F 97% 30.02 in 2.0 mi Calm Calm - 0.02 in   Overcast
4:27 PM 55.4 °F 53.6 °F 94% 30.01 in 7.0 mi Calm Calm - 0.01 in   Overcast
4:53 PM 55.9 °F 53.1 °F 90% 30.01 in 10.0 mi Calm Calm - 0.02 in   Overcast
5:20 PM 55.4 °F 53.6 °F 94% 30.00 in 10.0 mi Calm Calm - 0.01 in   Overcast
5:34 PM 55.4 °F 53.6 °F 94% 30.00 in 10.0 mi Calm Calm - 0.01 in   Scattered Clouds
5:53 PM 55.9 °F 53.1 °F 90% 30.01 in 10.0 mi Calm Calm - 0.02 in   Clear
6:53 PM 54.0 °F 53.1 °F 97% 30.02 in 8.0 mi Calm Calm - 0.02 in   Clear
7:36 PM 51.8 °F 51.8 °F 100% 30.01 in 1.8 mi Calm Calm - 0.02 in   Mostly Cloudy
7:46 PM 53.6 °F 51.8 °F 94% 30.02 in 3.0 mi Calm Calm - 0.03 in   Mostly Cloudy
7:53 PM 54.0 °F 53.1 °F 97% 30.03 in 5.0 mi Calm Calm - 0.03 in   Mostly Cloudy
8:12 PM 51.8 °F 51.8 °F 100% 30.01 in 1.8 mi Calm Calm - 0.02 in   Scattered Clouds
8:22 PM 51.8 °F 51.8 °F 100% 30.01 in 0.5 mi Calm Calm - 0.03 in Fog Fog
8:32 PM 51.8 °F 50.0 °F 94% 30.01 in 0.2 mi Calm Calm - 0.04 in Fog Fog
8:46 PM 51.8 °F 51.8 °F 100% 30.01 in 0.5 mi WSW 5.8 mph - 0.06 in Fog Fog
8:53 PM 51.1 °F 51.1 °F 100% 30.02 in 0.5 mi Calm Calm - 0.06 in Fog Fog
8:55 PM 50.0 °F 50.0 °F 100% 30.02 in 0.2 mi Calm Calm - N/A Fog Fog
9:09 PM 51.8 °F 50.0 °F 94% 30.02 in 1.0 mi NW 4.6 mph - 0.02 in   Partly Cloudy
9:13 PM 50.0 °F 50.0 °F 100% 30.02 in 3.0 mi NW 3.5 mph - 0.02 in   Partly Cloudy
9:53 PM 50.0 °F 46.9 °F 89% 30.03 in 10.0 mi NNW 9.2 mph - 0.05 in   Scattered Clouds
10:53 PM 51.8 °F 46.4 °F 82% 30.04 in 10.0 mi NNW 9.2 mph - N/A   Overcast
11:53 PM 50.0 °F 45.0 °F 83% 30.04 in 10.0 mi NW 10.4 mph - N/A   Scattered Clouds